[[{"header":{"parameterUnit":"m.s-1","parameterCategory":1,"la1":30.2991,"la2":30.254,"lo1":-89.0895,"lo2":-89.0444,"dy":0.0017,"dx":0.0017,"nx":28,"ny":28,"refTime":"2024-02-19T09:00:00:Z","depth":0,"parameterNumber":2,"parameterNumberName":"U-component_of_WINDS"},"data":[0,0,0,0,0,0,0,0,0,0,0,0,0,0,0,0,0,0,0,0,0,0,0,0,0,0,0,0,0,0,0,0,0,0,0,0,0,0,0,0,0,0,0,0,0,0,0,0,0,0,0,0,0,0,0,0,0,0,1.0657,1.0658,0,1.073,1.0731,1.0732,1.073,1.0729,1.0728,1.0727,1.0806,1.0809,1.0812,0,0,0,0,0,0,0,0,0,0,0,0,0,1.052,1.0522,1.0657,1.0658,1.0659,1.073,1.0731,1.0732,1.073,1.0729,1.0727,1.0726,1.0805,1.0809,1.0812,0,0,0,0,0,0,0,0,0,0,0,0,0,1.0585,1.0523,1.0657,1.0666,1.0668,1.073,1.0731,1.0732,1.073,1.0729,1.0727,1.0726,1.0804,1.0808,1.0813,1.0871,0,0,1.0827,1.0829,0,0,0,0,0,0,0,0,1.0581,1.059,1.0664,1.0666,1.0668,1.0719,1.0711,1.0779,1.0731,1.0707,1.0727,1.0725,1.0779,1.0785,1.0802,1.0875,1.0878,1.0827,1.083,1.0832,1.0833,0,0,0,0,0,0,0,1.0576,1.0587,1.0686,1.0665,1.0667,1.0668,1.0676,1.0724,1.075,1.0709,1.0709,1.0717,1.0779,1.0798,1.0804,1.088,1.0827,1.0831,1.0834,1.0836,1.1003,1.1005,0,0,0,0,0,0,1.0569,1.0583,1.0684,1.0688,1.0619,1.0672,1.068,1.0704,1.075,1.0755,1.0718,1.0717,1.0791,1.0799,1.0807,1.0877,1.0832,1.0836,1.0839,1.1001,1.1003,1.1005,0,0,0,0,0,0,1.0566,1.0578,1.0681,1.0636,1.0649,1.0676,1.0703,1.0706,1.0725,1.0757,1.0762,1.0732,1.079,1.0801,1.0855,1.088,1.0838,1.0842,1.0999,1.1002,1.1004,1.1019,0,0,0,0,0,0,1.0562,1.0577,1.0599,1.0636,1.0651,1.0726,1.0704,1.0709,1.0732,1.0731,1.0771,1.0777,1.079,1.0848,1.0859,1.0886,1.0846,1.0997,1.1001,1.1004,1.1016,1.1022,1.1026,0,0,0,0,0,1.0558,1.0601,1.06,1.0612,1.0678,1.0728,1.0736,1.0749,1.0734,1.0757,1.0777,1.0775,1.0876,1.0853,1.0866,1.0894,1.0996,1.1,1.1003,1.1014,1.1021,1.1026,0,0,0,0,0,0,1.0568,1.0606,1.0605,1.0662,1.0691,1.0727,1.0756,1.0756,1.0791,1.0788,1.0804,1.0813,1.0867,1.0887,1.0861,1.0953,1.0934,1.0941,1.0938,1.0944,1.0949,1.0943,1.085,0,0,0,0,0,1.0577,1.0612,1.0645,1.0692,1.0706,1.0728,1.075,1.0757,1.0789,1.0802,1.0827,1.0858,1.0897,1.0922,1.096,1.102,1.1028,1.1045,1.105,1.1054,1.1059,1.1092,1.1099,1.1018,1.1018,1.1018,0,0,1.0596,1.0621,1.0643,1.0694,1.0718,1.0755,1.0739,1.0779,1.0807,1.0809,1.086,1.088,1.0916,1.0973,1.1,1.0991,1.1084,1.1059,1.1062,1.1065,1.1097,1.1104,1.1111,1.102,1.102,1.102,0,0,1.0648,1.0671,1.0712,1.0736,1.0771,1.0786,1.0796,1.0831,1.0843,1.0895,1.0897,1.0931,1.0998,1.1023,1.1045,1.1107,1.1106,1.1119,1.1145,1.1176,1.1183,1.1188,1.1209,1.1217,1.1125,1.1125,1.1125,0,1.0667,1.0722,1.0734,1.0774,1.0796,1.0798,1.084,1.0863,1.0909,1.0925,1.0915,1.0997,1.1022,1.1084,1.1099,1.1118,1.1129,1.1114,1.118,1.1186,1.1192,1.1212,1.122,1.1126,1.1126,1.1125,1.1125,0,1.0743,1.0782,1.0811,1.0853,1.0879,1.092,1.0939,1.0965,1.097,1.0985,1.1038,1.1068,1.1111,1.1127,1.1133,1.119,1.1184,1.1177,1.1158,1.1201,1.122,1.1228,1.1127,1.1127,1.1127,1.1126,0,0,1.0804,1.0852,1.0862,1.0881,1.092,1.095,1.0992,1.1032,1.1053,1.1086,1.112,1.1176,1.117,1.1194,1.1204,1.1231,1.1277,1.1221,1.1222,1.1229,1.1341,1.1344,1.1353,1.1277,1.1279,1.128,1.1337,0,1.0859,1.0931,1.0942,1.1005,1.104,1.1043,1.1079,1.1107,1.1123,1.1156,1.1175,1.1213,1.1203,1.1217,1.1245,1.1266,1.1299,1.1262,1.131,1.1312,1.1299,1.1363,1.1368,1.142,1.1345,1.1346,1.1347,0,1.0933,1.0965,1.1031,1.1064,1.108,1.1112,1.1149,1.1181,1.1213,1.1223,1.125,1.1256,1.13,1.128,1.134,1.1314,1.1335,1.1348,1.1351,1.1354,1.1331,1.1368,1.1437,1.1444,1.1359,1.1358,1.1358,0,1.0969,1.1029,1.1076,1.1092,1.1133,1.1155,1.1173,1.1204,1.1227,1.1261,1.1276,1.1315,1.1336,1.1367,1.1383,1.1367,1.1442,1.1424,1.1451,1.1451,1.1466,1.1464,1.1538,1.1482,1.1482,1.1481,1.1481,0,1.1029,1.1069,1.1092,1.1121,1.1166,1.118,1.1224,1.1242,1.1269,1.1302,1.1308,1.1339,1.1359,1.1393,1.1407,1.1454,1.1464,1.1473,1.1476,1.1472,1.1471,1.1485,1.1481,1.1484,1.1483,1.1483,1.1482,0,1.1075,1.1093,1.1144,1.1177,1.1187,1.1218,1.1248,1.1276,1.1292,1.1334,1.1345,1.137,1.1411,1.143,1.1481,1.149,1.1543,1.1545,1.1531,1.1532,1.1558,1.1555,1.1642,1.1654,1.1591,1.1592,1.1592,0,1.1111,1.1142,1.1179,1.12,1.1218,1.1253,1.1277,1.1292,1.1316,1.1355,1.1379,1.1419,1.1452,1.1517,1.1541,1.1579,1.1581,1.1609,1.1587,1.1581,1.158,1.1577,1.158,1.1612,1.1613,1.1614,1.1614,0,1.1173,1.118,1.1213,1.1248,1.1276,1.1305,1.1334,1.1352,1.1372,1.1399,1.1439,1.1465,1.1516,1.1556,1.1596,1.1616,1.1618,1.1621,1.1629,1.1624,1.1615,1.1619,1.1541,1.1619,1.1618,1.1618,1.1617,1.1617,1.1215,1.1241,1.1271,1.1307,1.133,1.1357,1.1385,1.1404,1.1437,1.1478,1.1486,1.1529,1.1561,1.1615,1.1637,1.1671,1.1665,1.1677,1.168,1.1682,1.1683,1.161,1.1679,1.1678,1.1678,1.1678,1.1678,0,1.1275,1.1294,1.1327,1.1367,1.1395,1.1394,1.1426,1.145,1.1487,1.1516,1.1548,1.1594,1.1633,1.166,1.1699,1.1721,1.1723,1.1731,1.1729,1.1733,1.1687,1.1675,1.1729,1.1729,1.1729,1.1729,1.1729,1.1729,1.131,1.1355,1.1365,1.1421,1.1441,1.1481,1.1499,1.1524,1.1547,1.1598,1.163,1.1646,1.1675,1.1716,1.1752,1.1759,1.1772,1.178,1.1787,1.1742,1.1737,1.1732,1.172,1.1783,1.1783,1.183,1.1831,1.1831]},{"header":{"parameterUnit":"m.s-1","parameterCategory":1,"la1":30.2991,"la2":30.254,"lo1":-89.0895,"lo2":-89.0444,"dy":0.0017,"dx":0.0017,"nx":28,"ny":28,"refTime":"2024-02-19T09:00:00:Z","depth":0,"parameterNumber":3,"parameterNumberName":"V-component_of_WINDS"},"data":[0,0,0,0,0,0,0,0,0,0,0,0,0,0,0,0,0,0,0,0,0,0,0,0,0,0,0,0,0,0,0,0,0,0,0,0,0,0,0,0,0,0,0,0,0,0,0,0,0,0,0,0,0,0,0,0,0,0,2.704,2.704,0,2.7061,2.7062,2.7062,2.7071,2.7071,2.7071,2.7071,2.7091,2.7092,2.7092,0,0,0,0,0,0,0,0,0,0,0,0,0,2.7004,2.7004,2.704,2.704,2.704,2.7061,2.7062,2.7062,2.7071,2.7071,2.7071,2.7071,2.7091,2.7092,2.7092,0,0,0,0,0,0,0,0,0,0,0,0,0,2.7022,2.7004,2.704,2.7048,2.7049,2.7061,2.7062,2.7062,2.7071,2.7071,2.7071,2.7071,2.7091,2.7092,2.7092,2.7098,0,0,2.7095,2.7095,0,0,0,0,0,0,0,0,2.7021,2.7023,2.7046,2.7047,2.7048,2.7064,2.7056,2.7074,2.7071,2.7063,2.7071,2.7071,2.7082,2.7083,2.7088,2.7099,2.71,2.7095,2.7096,2.7096,2.7096,0,0,0,0,0,0,0,2.7019,2.7022,2.7048,2.7046,2.7048,2.7049,2.7052,2.706,2.7072,2.7063,2.7064,2.7067,2.7082,2.7087,2.7088,2.71,2.7095,2.7096,2.7096,2.7097,2.7117,2.7117,0,0,0,0,0,0,2.7017,2.7021,2.7048,2.7049,2.7034,2.705,2.7053,2.7059,2.7072,2.7074,2.7067,2.7067,2.7085,2.7087,2.7089,2.7096,2.7096,2.7097,2.7097,2.7117,2.7117,2.7117,0,0,0,0,0,0,2.7016,2.7019,2.7047,2.7035,2.7039,2.705,2.7057,2.7059,2.7064,2.7075,2.7077,2.7069,2.7085,2.7088,2.7096,2.7097,2.7097,2.7098,2.7117,2.7117,2.7117,2.7111,0,0,0,0,0,0,2.7015,2.7019,2.7022,2.7035,2.7039,2.7054,2.7057,2.706,2.7065,2.7066,2.7077,2.7079,2.7086,2.7094,2.7097,2.7098,2.7098,2.7116,2.7117,2.7117,2.7111,2.711,2.711,0,0,0,0,0,2.7014,2.7019,2.7022,2.7026,2.7044,2.7054,2.7056,2.7064,2.7065,2.7068,2.7075,2.7079,2.7096,2.7095,2.7098,2.7099,2.7116,2.7117,2.7117,2.7111,2.7111,2.711,0,0,0,0,0,0,2.7006,2.7021,2.7025,2.7035,2.7043,2.7056,2.706,2.7064,2.7072,2.7072,2.708,2.7083,2.709,2.7095,2.7094,2.7105,2.7107,2.7107,2.7101,2.7101,2.7101,2.7099,2.7099,0,0,0,0,0,2.7005,2.7013,2.7026,2.7034,2.7038,2.7048,2.7053,2.7058,2.7067,2.707,2.7078,2.7085,2.7093,2.7097,2.7104,2.7111,2.7114,2.7114,2.7113,2.7113,2.7113,2.7117,2.7117,2.7117,2.7117,2.7117,0,0,2.7004,2.7013,2.7018,2.7032,2.7039,2.7047,2.7051,2.7059,2.7064,2.7071,2.7079,2.7085,2.7094,2.7101,2.7105,2.7106,2.7114,2.7113,2.7113,2.7113,2.7117,2.7117,2.7117,2.7117,2.7117,2.7117,0,0,2.7006,2.7014,2.7021,2.7028,2.7039,2.7045,2.7047,2.7059,2.7063,2.7071,2.7077,2.7083,2.7095,2.7101,2.7106,2.7108,2.7112,2.711,2.7109,2.7112,2.7112,2.7112,2.7112,2.7112,2.711,2.711,2.711,0,2.7003,2.7015,2.7024,2.7031,2.7037,2.7044,2.705,2.7056,2.7069,2.7072,2.7073,2.7088,2.7095,2.7103,2.7104,2.7108,2.7109,2.7109,2.7111,2.7111,2.7111,2.7112,2.7112,2.711,2.711,2.711,2.711,0,2.701,2.7018,2.7022,2.7035,2.7041,2.7047,2.7056,2.7061,2.7065,2.7071,2.7079,2.7087,2.7096,2.7098,2.7103,2.7107,2.7107,2.711,2.7111,2.7111,2.7111,2.7112,2.711,2.711,2.711,2.711,0,0,2.7008,2.7024,2.7026,2.7031,2.7043,2.7049,2.7055,2.7064,2.7068,2.7076,2.7081,2.7091,2.7093,2.7098,2.7103,2.7106,2.7106,2.7108,2.7108,2.7107,2.7111,2.7109,2.7109,2.7109,2.7109,2.7109,2.711,0,2.7011,2.7024,2.7031,2.7041,2.7048,2.7054,2.706,2.7067,2.7073,2.7079,2.7084,2.7091,2.7094,2.7097,2.71,2.7106,2.7107,2.7106,2.7113,2.7113,2.711,2.711,2.7108,2.7109,2.711,2.7111,2.7111,0,2.7016,2.7024,2.7035,2.7045,2.7048,2.7053,2.7062,2.7068,2.7076,2.7079,2.7085,2.7089,2.7095,2.7097,2.7104,2.7103,2.7106,2.711,2.711,2.7111,2.7112,2.711,2.7109,2.7109,2.7111,2.7111,2.7111,0,2.7013,2.7026,2.7034,2.7038,2.7051,2.7054,2.7059,2.7067,2.7072,2.7079,2.7082,2.7089,2.7093,2.7098,2.7104,2.7105,2.7111,2.7113,2.7114,2.7114,2.7115,2.7115,2.7114,2.7117,2.7117,2.7117,2.7117,0,2.7015,2.7021,2.7033,2.7038,2.7044,2.7052,2.7058,2.7063,2.707,2.7075,2.7081,2.7085,2.7093,2.7099,2.7103,2.7109,2.7111,2.7113,2.7114,2.7113,2.7112,2.7115,2.7115,2.7117,2.7117,2.7117,2.7117,0,2.7013,2.7021,2.703,2.7041,2.7044,2.7048,2.7057,2.7061,2.7066,2.7073,2.7075,2.7083,2.7089,2.7096,2.7105,2.7108,2.7113,2.7115,2.711,2.7111,2.7111,2.7111,2.7112,2.7113,2.7116,2.7115,2.7115,0,2.7014,2.7019,2.703,2.7034,2.704,2.7046,2.7051,2.7058,2.7063,2.7072,2.7075,2.7082,2.7088,2.7097,2.7104,2.711,2.7112,2.7112,2.7113,2.711,2.7111,2.7111,2.7111,2.7111,2.7111,2.7111,2.7111,0,2.7015,2.7018,2.7026,2.7034,2.7039,2.7046,2.7053,2.7055,2.7064,2.7068,2.7075,2.708,2.7089,2.7095,2.7102,2.7106,2.711,2.7111,2.7111,2.7109,2.7107,2.7108,2.7109,2.7111,2.7111,2.7111,2.7111,2.7111,2.7014,2.7018,2.7027,2.7034,2.704,2.7046,2.705,2.7056,2.7062,2.707,2.7074,2.7081,2.7087,2.7097,2.7101,2.7106,2.7107,2.7108,2.7108,2.7108,2.7108,2.7106,2.7107,2.7107,2.7107,2.7107,2.7107,0,2.7015,2.7021,2.7027,2.7037,2.7042,2.7045,2.7053,2.7057,2.7063,2.7069,2.7075,2.7082,2.7088,2.7095,2.7101,2.7103,2.7105,2.7105,2.7104,2.7105,2.7106,2.7105,2.7103,2.7103,2.7103,2.7103,2.7103,2.7103,2.7016,2.7023,2.7027,2.7037,2.7042,2.7049,2.7053,2.7058,2.7063,2.7071,2.7077,2.7081,2.7087,2.7094,2.7099,2.7101,2.7103,2.7102,2.7104,2.7105,2.7105,2.7106,2.7104,2.7102,2.7102,2.7102,2.7102,2.7102]}]]